SVA224 OPKC-OEJN

Flight info

Callsign SVA224
Flight time N/A
Altitude 38000
Route MELOM A454 TAPDO G652 TOKRA/N0518F280 Y511 ITRUX/N0492F400 Y511 ASMIS DCT ALPUT M309 VEMEM
Aircraft B789/H-SDE1E2E3FGHIJ2J3J4J5M1RWXY/LB1D1

Departure

Time 2026-05-01 12:57
Airport Jinnah International Airport (OPKC)

Arrival

Time N/A
Airport King Abdulaziz International Airport (OEJN)
Time Latitude Longitude Altitude Speed Heading
2026-05-01 12:42 24.90299 67.16836 106 ft 0 kts 125°
2026-05-01 12:44 24.90301 67.16832 106 ft 2 kts 125°
2026-05-01 12:45 24.90320 67.16802 105 ft 2 kts 124°
2026-05-01 12:45 24.90329 67.16787 105 ft 2 kts 123°
2026-05-01 12:45 24.90338 67.16772 104 ft 2 kts 122°
2026-05-01 12:46 24.90347 67.16756 105 ft 2 kts 120°
2026-05-01 12:46 24.90355 67.16741 104 ft 2 kts 117°
2026-05-01 12:46 24.90362 67.16724 105 ft 2 kts 110°
2026-05-01 12:46 24.90365 67.16706 104 ft 2 kts 89°
2026-05-01 12:47 24.90364 67.16695 104 ft 1 kts 77°
2026-05-01 12:47 24.90364 67.16694 104 ft 0 kts 77°
2026-05-01 12:52 24.90364 67.16696 104 ft 1 kts 78°
2026-05-01 12:52 24.90377 67.16755 105 ft 8 kts 75°
2026-05-01 12:52 24.90397 67.16835 107 ft 13 kts 74°
2026-05-01 12:53 24.90509 67.17035 107 ft 16 kts
2026-05-01 12:53 24.90579 67.17106 107 ft 15 kts 70°
2026-05-01 12:53 24.90614 67.17237 107 ft 20 kts 74°
2026-05-01 12:54 24.90657 67.17386 107 ft 20 kts 62°
2026-05-01 12:54 24.90847 67.17467 111 ft 6 kts 311°
2026-05-01 12:54 24.90856 67.17436 109 ft 4 kts 274°
2026-05-01 12:55 24.90845 67.17363 112 ft 0 kts 254°
2026-05-01 12:56 24.90837 67.17330 114 ft 13 kts 254°
2026-05-01 12:56 24.90763 67.17041 112 ft 67 kts 254°
2026-05-01 12:56 24.90590 67.16350 109 ft 119 kts 254°
2026-05-01 12:56 24.90326 67.15315 111 ft 161 kts 254°
2026-05-01 12:57 24.90012 67.14056 508 ft 169 kts 253°
2026-05-01 12:57 24.89113 67.11683 1452 ft 177 kts 228°
2026-05-01 12:57 24.88183 67.10796 1902 ft 181 kts 226°
2026-05-01 12:58 24.87259 67.09759 2152 ft 198 kts 230°
2026-05-01 12:58 24.86279 67.08618 2365 ft 211 kts 232°
2026-05-01 12:58 24.85792 67.07054 2373 ft 231 kts 266°
2026-05-01 12:59 24.86650 67.03451 3234 ft 249 kts 289°
2026-05-01 12:59 24.87199 67.01634 3809 ft 252 kts 285°
2026-05-01 12:59 24.88150 66.97859 4997 ft 258 kts 286°
2026-05-01 13:00 24.88988 66.94680 6055 ft 261 kts 287°
2026-05-01 13:00 24.89668 66.92096 6886 ft 264 kts 287°
2026-05-01 13:01 24.90690 66.88174 8170 ft 268 kts 288°
2026-05-01 13:01 24.91032 66.86865 8599 ft 269 kts 288°
2026-05-01 13:01 24.92254 66.82191 10065 ft 274 kts 288°
2026-05-01 13:02 24.92606 66.80840 10339 ft 282 kts 288°
2026-05-01 13:07 24.90203 66.22954 19397 ft 393 kts 266°
2026-05-01 13:07 24.89945 66.19952 19799 ft 395 kts 266°
2026-05-01 13:07 24.89684 66.16936 20187 ft 397 kts 266°
2026-05-01 13:08 24.89423 66.13909 20570 ft 398 kts 266°
2026-05-01 13:08 24.89259 66.12017 20805 ft 400 kts 266°
2026-05-01 13:08 24.89040 66.09495 21118 ft 401 kts 266°
2026-05-01 13:09 24.88774 66.06435 21500 ft 402 kts 266°
2026-05-01 13:09 24.88506 66.03359 21862 ft 404 kts 266°
2026-05-01 13:09 24.88236 66.00272 22221 ft 406 kts 266°
2026-05-01 13:09 24.87965 65.97173 22581 ft 408 kts 266°
2026-05-01 13:10 24.87692 65.94059 22935 ft 409 kts 266°
2026-05-01 13:10 24.87417 65.90934 23256 ft 411 kts 266°
2026-05-01 13:10 24.87140 65.87797 23528 ft 413 kts 266°
2026-05-01 13:10 24.86862 65.84645 23795 ft 415 kts 266°
2026-05-01 13:11 24.86581 65.81481 24053 ft 416 kts 266°
2026-05-01 13:11 24.86298 65.78300 24314 ft 418 kts 266°
2026-05-01 13:11 24.86014 65.75108 24569 ft 420 kts 265°
2026-05-01 13:11 24.85728 65.71900 24815 ft 422 kts 265°
2026-05-01 13:12 24.85439 65.68676 25060 ft 424 kts 265°
2026-05-01 13:12 24.85149 65.65439 25306 ft 426 kts 265°
2026-05-01 13:12 24.84857 65.62192 25546 ft 428 kts 265°
2026-05-01 13:12 24.84563 65.58927 25791 ft 429 kts 265°
2026-05-01 13:13 24.84266 65.55645 26028 ft 431 kts 265°
2026-05-01 13:13 24.83968 65.52359 26269 ft 433 kts 265°
2026-05-01 13:13 24.83667 65.49045 26512 ft 435 kts 265°
2026-05-01 13:13 24.83365 65.45722 26756 ft 437 kts 265°
2026-05-01 13:14 24.83060 65.42383 26996 ft 439 kts 265°
2026-05-01 13:14 24.82753 65.39030 27239 ft 441 kts 265°
2026-05-01 13:14 24.82444 65.35661 27478 ft 444 kts 265°
2026-05-01 13:14 24.82133 65.32275 27707 ft 446 kts 265°
2026-05-01 13:15 24.81819 65.28876 27969 ft 448 kts 265°
2026-05-01 13:15 24.81504 65.25458 28216 ft 450 kts 265°
2026-05-01 13:15 24.81186 65.22026 28460 ft 452 kts 265°
2026-05-01 13:15 24.80865 65.18577 28708 ft 454 kts 265°
2026-05-01 13:16 24.80546 65.15152 28953 ft 456 kts 265°
2026-05-01 13:16 24.80222 65.11670 29189 ft 459 kts 265°
2026-05-01 13:16 24.79894 65.08170 29434 ft 461 kts 265°
2026-05-01 13:17 24.78897 64.97572 30110 ft 467 kts 265°
2026-05-01 13:17 24.78560 64.94007 30344 ft 469 kts 265°
2026-05-01 13:18 24.77880 64.86848 30793 ft 472 kts 265°
2026-05-01 13:18 24.77537 64.83248 31023 ft 474 kts 265°
2026-05-01 13:18 24.77192 64.79635 31249 ft 476 kts 265°
2026-05-01 13:18 24.76845 64.76012 31473 ft 477 kts 265°
2026-05-01 13:19 24.76496 64.72372 31712 ft 479 kts 265°
2026-05-01 13:19 24.76145 64.68724 31945 ft 481 kts 265°
2026-05-01 13:19 24.75437 64.61402 32564 ft 481 kts 265°
2026-05-01 13:20 24.75082 64.57747 32912 ft 480 kts 265°
2026-05-01 13:20 24.74728 64.54097 33269 ft 480 kts 265°
2026-05-01 13:20 24.74372 64.50453 33629 ft 479 kts 265°
2026-05-01 13:21 24.73660 64.43173 34270 ft 477 kts 264°
2026-05-01 13:21 24.73303 64.39543 34578 ft 477 kts 264°
2026-05-01 13:21 24.72947 64.35924 34892 ft 476 kts 264°
2026-05-01 13:21 24.72589 64.32303 35200 ft 475 kts 264°
2026-05-01 13:22 24.72232 64.28694 35518 ft 475 kts 264°
2026-05-01 13:22 24.71874 64.25089 35825 ft 474 kts 264°
2026-05-01 13:22 24.71521 64.21536 36137 ft 473 kts 264°
2026-05-01 13:22 24.71162 64.17938 36431 ft 473 kts 264°
2026-05-01 13:23 24.70803 64.14349 36736 ft 472 kts 264°
2026-05-01 13:23 24.70444 64.10763 37045 ft 471 kts 264°
2026-05-01 13:23 24.70084 64.07182 37336 ft 471 kts 264°
2026-05-01 13:23 24.69724 64.03604 37576 ft 471 kts 264°
2026-05-01 13:24 24.69362 64.00012 37691 ft 474 kts 264°
2026-05-01 13:24 24.68997 63.96404 37688 ft 474 kts 264°
2026-05-01 13:25 24.67907 63.85685 37686 ft 467 kts 264°
2026-05-01 13:25 24.67181 63.78583 37685 ft 468 kts 263°
2026-05-01 13:26 24.66451 63.71477 37692 ft 468 kts 263°
2026-05-01 13:26 24.65718 63.64376 37694 ft 467 kts 263°
2026-05-01 13:27 24.64982 63.57279 37689 ft 467 kts 263°
2026-05-01 13:27 24.63870 63.46625 37692 ft 468 kts 263°
2026-05-01 13:28 24.62752 63.35981 37697 ft 467 kts 263°
2026-05-01 13:29 24.61255 63.21841 37699 ft 467 kts 263°
2026-05-01 13:31 24.58976 63.00557 37708 ft 467 kts 263°
2026-05-01 13:32 24.57059 62.82874 37708 ft 466 kts 263°
2026-05-01 13:33 24.55126 62.65233 37715 ft 465 kts 263°
2026-05-01 13:34 24.53563 62.51127 37723 ft 465 kts 263°
2026-05-01 13:35 24.52386 62.40561 37722 ft 464 kts 263°
2026-05-01 13:36 24.51202 62.30005 37730 ft 464 kts 263°
2026-05-01 13:36 24.50017 62.19513 37732 ft 463 kts 263°
2026-05-01 13:37 24.49221 62.12502 37733 ft 463 kts 263°
2026-05-01 13:37 24.48421 62.05493 37730 ft 462 kts 263°
2026-05-01 13:38 24.47218 61.94992 37735 ft 462 kts 263°
2026-05-01 13:39 24.46412 61.87997 37739 ft 462 kts 263°
2026-05-01 13:39 24.45616 61.81116 37734 ft 461 kts 263°
2026-05-01 13:40 24.44805 61.74133 37744 ft 461 kts 263°
2026-05-01 13:40 24.43990 61.67145 37745 ft 461 kts 263°
2026-05-01 13:41 24.43173 61.60162 37749 ft 461 kts 263°
2026-05-01 13:41 24.42353 61.53188 37749 ft 461 kts 263°
2026-05-01 13:42 24.41529 61.46214 37751 ft 460 kts 263°
2026-05-01 13:42 24.40704 61.39251 37754 ft 460 kts 263°
2026-05-01 13:43 24.39660 61.32374 37740 ft 461 kts 254°
2026-05-01 13:43 24.37542 61.25735 37757 ft 461 kts 251°
2026-05-01 13:44 24.35404 61.19127 37757 ft 460 kts 252°
2026-05-01 13:44 24.33260 61.12511 37764 ft 460 kts 251°
2026-05-01 13:45 24.31111 61.05901 37764 ft 461 kts 251°
2026-05-01 13:45 24.28961 60.99288 37771 ft 460 kts 251°
2026-05-01 13:46 24.26806 60.92679 37769 ft 461 kts 251°
2026-05-01 13:46 24.24649 60.86071 37772 ft 461 kts 251°
2026-05-01 13:47 24.22489 60.79469 37773 ft 460 kts 251°
2026-05-01 13:47 24.20330 60.72874 37776 ft 460 kts 251°
2026-05-01 13:48 24.18166 60.66281 37775 ft 460 kts 251°
2026-05-01 13:48 24.16365 60.60802 37780 ft 460 kts 251°
2026-05-01 13:49 24.14199 60.54220 37779 ft 459 kts 251°
2026-05-01 13:50 24.10650 60.43460 37779 ft 459 kts 251°
2026-05-01 13:50 24.08478 60.36889 37778 ft 459 kts 251°
2026-05-01 13:51 24.06301 60.30316 37779 ft 459 kts 251°
2026-05-01 13:51 24.04139 60.23795 37785 ft 459 kts 251°
2026-05-01 13:52 24.01956 60.17224 37787 ft 459 kts 251°
2026-05-01 13:52 23.99775 60.10668 37788 ft 459 kts 251°
2026-05-01 13:53 23.97591 60.04114 37789 ft 459 kts 251°
2026-05-01 13:53 23.94320 59.94319 37788 ft 458 kts 251°
2026-05-01 13:54 23.92131 59.87776 37786 ft 458 kts 251°
2026-05-01 13:55 23.88165 59.75950 37792 ft 458 kts 251°
2026-05-01 13:55 23.85968 59.69414 37792 ft 458 kts 251°
2026-05-01 13:56 23.83769 59.62881 37793 ft 458 kts 251°
2026-05-01 13:56 23.81568 59.56353 37790 ft 458 kts 251°
2026-05-01 13:57 23.79349 59.49830 37792 ft 458 kts 250°
2026-05-01 13:57 23.77013 59.43350 37797 ft 459 kts 250°
2026-05-01 13:58 23.74684 59.36854 37797 ft 459 kts 250°
2026-05-01 13:58 23.72341 59.30383 37792 ft 458 kts 250°
2026-05-01 13:59 23.70010 59.23909 37792 ft 459 kts 250°
2026-05-01 13:59 23.67665 59.17440 37792 ft 458 kts 250°
2026-05-01 14:00 23.65324 59.10970 37789 ft 459 kts 250°
2026-05-01 14:00 23.62975 59.04500 37791 ft 459 kts 250°
2026-05-01 14:01 23.60641 58.98075 37792 ft 459 kts 250°
2026-05-01 14:01 23.58283 58.91595 37808 ft 460 kts 250°
2026-05-01 14:02 23.55920 58.85111 37806 ft 459 kts 250°
2026-05-01 14:02 23.53562 58.78651 37804 ft 458 kts 250°
2026-05-01 14:03 23.51205 58.72204 37807 ft 458 kts 250°
2026-05-01 14:03 23.48844 58.65754 37808 ft 458 kts 250°
2026-05-01 14:04 23.46480 58.59305 37793 ft 458 kts 250°
2026-05-01 14:04 23.44516 58.53956 37805 ft 458 kts 250°
2026-05-01 14:05 23.41748 58.46427 37797 ft 459 kts 250°
2026-05-01 14:05 23.39355 58.39987 37804 ft 459 kts 249°
2026-05-01 14:06 23.36882 58.33586 37802 ft 459 kts 249°
2026-05-01 14:06 23.34450 58.27160 37816 ft 459 kts 249°
2026-05-01 14:07 23.31992 58.20750 37822 ft 458 kts 249°
2026-05-01 14:08 23.28332 58.11172 37844 ft 457 kts 249°
2026-05-01 14:08 23.25886 58.04798 37847 ft 457 kts 249°
2026-05-01 14:09 23.23547 57.98370 37842 ft 458 kts 251°
2026-05-01 14:09 23.21328 57.91914 37856 ft 460 kts 251°
2026-05-01 14:10 23.19084 57.85401 37862 ft 460 kts 251°
2026-05-01 14:10 23.16840 57.78884 37870 ft 462 kts 251°
2026-05-01 14:11 23.14581 57.72347 37889 ft 461 kts 251°
2026-05-01 14:11 23.11197 57.62564 37894 ft 461 kts 251°
2026-05-01 14:12 23.08943 57.56061 37903 ft 460 kts 251°
2026-05-01 14:12 23.06686 57.49558 37900 ft 460 kts 251°
2026-05-01 14:13 23.04811 57.44164 37899 ft 459 kts 251°
2026-05-01 14:13 23.02172 57.36582 37889 ft 459 kts 251°
2026-05-01 14:14 22.99846 57.30124 37871 ft 461 kts 246°
2026-05-01 14:14 22.96883 57.23950 37879 ft 462 kts 245°
2026-05-01 14:15 22.93947 57.17741 37871 ft 462 kts 244°
2026-05-01 14:15 22.90997 57.11601 37867 ft 462 kts 244°
2026-05-01 14:16 22.88053 57.05422 37852 ft 461 kts 244°
2026-05-01 14:16 22.85092 56.99251 37839 ft 461 kts 244°
2026-05-01 14:17 22.82136 56.93080 37848 ft 462 kts 244°
2026-05-01 14:17 22.79172 56.86902 37841 ft 462 kts 244°
2026-05-01 14:18 22.76211 56.80736 37836 ft 461 kts 244°
2026-05-01 14:18 22.73750 56.75618 37832 ft 460 kts 244°
2026-05-01 14:19 22.70292 56.68435 37824 ft 460 kts 244°
2026-05-01 14:19 22.67334 56.62298 37821 ft 459 kts 244°
2026-05-01 14:20 22.62895 56.53104 37808 ft 459 kts 244°
2026-05-01 14:21 22.59933 56.46977 37808 ft 459 kts 244°
2026-05-01 14:21 22.56988 56.40894 37803 ft 459 kts 244°
2026-05-01 14:22 22.52537 56.31704 37798 ft 460 kts 244°
2026-05-01 14:22 22.49569 56.25581 37799 ft 459 kts 244°
2026-05-01 14:23 22.46597 56.19459 37791 ft 460 kts 244°
2026-05-01 14:23 22.44126 56.14372 37794 ft 460 kts 244°
2026-05-01 14:24 22.40648 56.07223 37781 ft 460 kts 244°
2026-05-01 14:24 22.38172 56.02140 37787 ft 460 kts 244°
2026-05-01 14:25 22.35181 55.96034 37789 ft 459 kts 244°
2026-05-01 14:25 22.32184 55.89939 37775 ft 460 kts 244°
2026-05-01 14:26 22.27685 55.80789 37784 ft 460 kts 244°
2026-05-01 14:27 22.24684 55.74691 37772 ft 460 kts 244°
2026-05-01 14:27 22.21696 55.68591 37781 ft 460 kts 244°
2026-05-01 14:28 22.17377 55.59368 37764 ft 458 kts 251°
2026-05-01 14:28 22.16160 55.52655 37756 ft 458 kts 268°
2026-05-01 14:29 22.16567 55.45848 37782 ft 459 kts 274°
2026-05-01 14:30 22.17678 55.32121 37787 ft 460 kts 274°
2026-05-01 14:31 22.18507 55.21815 37782 ft 459 kts 274°
2026-05-01 14:31 22.19059 55.14949 37783 ft 459 kts 274°
2026-05-01 14:32 22.19604 55.08085 37792 ft 459 kts 274°
2026-05-01 14:32 22.20151 55.01230 37783 ft 458 kts 274°
2026-05-01 14:33 22.20699 54.94382 37784 ft 458 kts 274°
2026-05-01 14:33 22.21237 54.87584 37785 ft 458 kts 274°
2026-05-01 14:34 22.21778 54.80733 37784 ft 458 kts 274°
2026-05-01 14:34 22.22315 54.73882 37794 ft 458 kts 274°
2026-05-01 14:35 22.22850 54.67038 37798 ft 457 kts 273°
2026-05-01 14:35 22.23381 54.60190 37794 ft 458 kts 273°
2026-05-01 14:36 22.23910 54.53342 37785 ft 458 kts 273°
2026-05-01 14:36 22.24436 54.46493 37795 ft 458 kts 273°
2026-05-01 14:37 22.24959 54.39640 37788 ft 458 kts 273°
2026-05-01 14:37 22.25480 54.32779 37795 ft 458 kts 273°
2026-05-01 14:38 22.25997 54.25929 37788 ft 458 kts 273°
2026-05-01 14:38 22.26511 54.19082 37793 ft 457 kts 273°
2026-05-01 14:39 22.27021 54.12247 37800 ft 457 kts 273°
2026-05-01 14:39 22.27529 54.05411 37802 ft 457 kts 273°
2026-05-01 14:40 22.28033 53.98574 37797 ft 456 kts 273°
2026-05-01 14:40 22.28531 53.91789 37796 ft 456 kts 273°
2026-05-01 14:41 22.29029 53.84958 37791 ft 456 kts 273°
2026-05-01 14:41 22.29525 53.78131 37789 ft 456 kts 273°
2026-05-01 14:42 22.30017 53.71302 37789 ft 456 kts 273°
2026-05-01 14:42 22.30506 53.64475 37800 ft 456 kts 273°
2026-05-01 14:43 22.30993 53.57653 37796 ft 455 kts 272°
2026-05-01 14:43 22.31473 53.50836 37806 ft 455 kts 272°
2026-05-01 14:44 22.31952 53.44021 37801 ft 455 kts 272°
2026-05-01 14:44 22.32664 53.33801 37800 ft 455 kts 272°
2026-05-01 14:45 22.33369 53.23584 37799 ft 455 kts 272°
2026-05-01 14:46 22.33836 53.16775 37791 ft 455 kts 272°
2026-05-01 14:46 22.34530 53.06564 37793 ft 454 kts 272°
2026-05-01 14:47 22.34989 52.99759 37792 ft 454 kts 272°
2026-05-01 14:48 22.35672 52.89545 37794 ft 454 kts 272°
2026-05-01 14:48 22.36349 52.79340 37797 ft 454 kts 272°
2026-05-01 14:49 22.37238 52.65775 37803 ft 454 kts 272°
2026-05-01 14:50 22.38118 52.52175 37803 ft 453 kts 272°
2026-05-01 14:51 22.38770 52.41984 37804 ft 453 kts 272°
2026-05-01 14:52 22.39415 52.31799 37803 ft 453 kts 272°
2026-05-01 14:53 22.40054 52.21615 37812 ft 453 kts 272°
2026-05-01 14:53 22.40477 52.14816 37803 ft 454 kts 272°
2026-05-01 14:54 22.40898 52.08007 37806 ft 453 kts 272°
2026-05-01 14:54 22.41318 52.01210 37810 ft 453 kts 272°
2026-05-01 14:55 22.41733 51.94407 37807 ft 454 kts 272°
2026-05-01 14:55 22.42145 51.87604 37809 ft 454 kts 272°
2026-05-01 14:56 22.42554 51.80799 37811 ft 454 kts 272°
2026-05-01 14:56 22.42957 51.74042 37810 ft 454 kts 272°
2026-05-01 14:57 22.43361 51.67237 37808 ft 453 kts 272°
2026-05-01 14:57 22.43960 51.57031 37815 ft 453 kts 271°
2026-05-01 14:58 22.44356 51.50235 37815 ft 453 kts 271°
2026-05-01 14:58 22.44748 51.43440 37815 ft 453 kts 271°
2026-05-01 14:59 22.45138 51.36645 37818 ft 453 kts 271°
2026-05-01 14:59 22.45525 51.29856 37822 ft 452 kts 271°
2026-05-01 15:00 22.46099 51.19677 37820 ft 453 kts 271°
2026-05-01 15:01 22.46479 51.12886 37819 ft 452 kts 271°
2026-05-01 15:01 22.46856 51.06091 37820 ft 452 kts 271°
2026-05-01 15:02 22.47230 50.99309 37822 ft 452 kts 271°
2026-05-01 15:02 22.47598 50.92567 37820 ft 452 kts 271°
2026-05-01 15:03 22.47966 50.85795 37819 ft 451 kts 271°
2026-05-01 15:03 22.48330 50.79029 37822 ft 451 kts 271°
2026-05-01 15:04 22.48692 50.72251 37822 ft 452 kts 271°
2026-05-01 15:04 22.49051 50.65467 37823 ft 452 kts 271°
2026-05-01 15:05 22.49408 50.58680 37825 ft 452 kts 271°
2026-05-01 15:05 22.49762 50.51893 37828 ft 452 kts 271°
2026-05-01 15:06 22.50114 50.45101 37826 ft 452 kts 271°
2026-05-01 15:06 22.50461 50.38320 37822 ft 451 kts 271°
2026-05-01 15:07 22.50807 50.31538 37826 ft 452 kts 271°
2026-05-01 15:07 22.51149 50.24755 37829 ft 452 kts 271°
2026-05-01 15:08 22.51488 50.17978 37822 ft 451 kts 271°
2026-05-01 15:08 22.51824 50.11206 37829 ft 451 kts 271°
2026-05-01 15:09 22.52157 50.04444 37827 ft 450 kts 271°
2026-05-01 15:09 22.52484 49.97730 37831 ft 450 kts 271°
2026-05-01 15:10 22.52811 49.90972 37827 ft 450 kts 271°
2026-05-01 15:10 22.53296 49.80842 37833 ft 449 kts 270°
2026-05-01 15:11 22.54087 49.70737 37833 ft 450 kts 273°
2026-05-01 15:12 22.54727 49.63996 37832 ft 451 kts 273°
2026-05-01 15:12 22.55689 49.53883 37829 ft 450 kts 273°
2026-05-01 15:14 22.57166 49.38167 37832 ft 451 kts 273°
2026-05-01 15:14 22.58109 49.28043 37832 ft 450 kts 273°
2026-05-01 15:15 22.59356 49.14574 38592 ft 448 kts 272°
2026-05-01 15:16 22.59971 49.07877 39059 ft 447 kts 272°
2026-05-01 15:16 22.60583 49.01182 39499 ft 447 kts 272°
2026-05-01 15:17 22.61194 48.94469 39807 ft 450 kts 272°
2026-05-01 15:18 22.62110 48.84375 39820 ft 446 kts 272°
2026-05-01 15:19 22.63306 48.71033 39822 ft 445 kts 272°
2026-05-01 15:19 22.64196 48.61037 39823 ft 445 kts 272°
2026-05-01 15:20 22.65077 48.51073 39826 ft 445 kts 272°
2026-05-01 15:21 22.65666 48.44370 39825 ft 444 kts 272°
2026-05-01 15:21 22.66248 48.37709 39830 ft 444 kts 272°
2026-05-01 15:22 22.67112 48.27770 39832 ft 444 kts 272°
2026-05-01 15:22 22.67688 48.21108 39838 ft 444 kts 272°
2026-05-01 15:23 22.68260 48.14449 39839 ft 444 kts 272°
2026-05-01 15:23 22.68830 48.07790 39842 ft 444 kts 272°
2026-05-01 15:24 22.69396 48.01138 39840 ft 443 kts 271°
2026-05-01 15:24 22.69955 47.94487 39843 ft 443 kts 271°
2026-05-01 15:25 22.70513 47.87834 39846 ft 444 kts 271°
2026-05-01 15:25 22.71068 47.81180 39849 ft 443 kts 271°
2026-05-01 15:26 22.71619 47.74532 39854 ft 443 kts 271°
2026-05-01 15:26 22.72167 47.67891 39853 ft 443 kts 271°
2026-05-01 15:27 22.72713 47.61240 39859 ft 443 kts 271°
2026-05-01 15:28 22.73528 47.51263 39858 ft 443 kts 271°
2026-05-01 15:28 22.74067 47.44612 39862 ft 443 kts 271°
2026-05-01 15:29 22.74866 47.34690 39866 ft 442 kts 271°
2026-05-01 15:30 22.75924 47.21435 39868 ft 440 kts 271°
2026-05-01 15:31 22.77504 47.01533 39879 ft 443 kts 271°
2026-05-01 15:32 22.78549 46.88226 39883 ft 442 kts 271°
2026-05-01 15:34 22.80091 46.68311 39895 ft 441 kts 271°